Location: Pedholt
(56.0260°N, 10.2097°E)
Time: 19:11:04
(UTC+00:00)

Transit 2A Rocket - Pass Details

Date: 29 July 2021
Orbit: 586 x 917 km, 66.7° (Epoch: 27 September)

Event Time Altitude Azimuth Distance (km) Brightness Sun altitude
Rises 19:26:57 0° 304° (NW) 3,076 13.1 -0.2°
Reaches altitude 10° 19:29:30 10° 316° (NW) 2,212 9.4 -0.5°
Maximum altitude 19:33:55 29° 17° (NNE) 1,375 6.6 -1.0°
Drops below altitude 10° 19:38:42 10° 77° (ENE) 2,405 7.2 -1.5°
Sets 19:41:34 0° 88° (E) 3,392 7.9 -1.9°
